[[{"header":{"parameterUnit":"m.s-1","parameterCategory":1,"la1":30.2991,"la2":30.254,"lo1":-89.0895,"lo2":-89.0444,"dy":0.0017,"dx":0.0017,"nx":28,"ny":28,"refTime":"2024-10-05T09:00:00:Z","depth":0,"parameterNumber":2,"parameterNumberName":"U-component_of_WINDS"},"data":[0,0,0,0,0,0,0,0,0,0,0,0,0,0,0,0,0,0,0,0,0,0,0,0,0,0,0,0,0,0,0,0,0,0,0,0,0,0,0,0,0,0,0,0,0,0,0,0,0,0,0,0,0,0,0,0,0,0,-3.5363,-3.5364,0,-3.5441,-3.5442,-3.5443,-3.5393,-3.539,-3.5388,-3.5386,-3.5465,-3.5469,-3.5473,0,0,0,0,0,0,0,0,0,0,0,0,0,-3.5174,-3.5177,-3.5363,-3.5364,-3.5365,-3.5441,-3.5442,-3.5443,-3.5393,-3.539,-3.5387,-3.5385,-3.5463,-3.5468,-3.5474,0,0,0,0,0,0,0,0,0,0,0,0,0,-3.5254,-3.5179,-3.5363,-3.5349,-3.5349,-3.5441,-3.5442,-3.5443,-3.5394,-3.539,-3.5387,-3.5383,-3.5462,-3.5468,-3.5474,-3.5584,0,0,-3.5494,-3.5497,0,0,0,0,0,0,0,0,-3.525,-3.5261,-3.535,-3.535,-3.535,-3.5403,-3.5404,-3.549,-3.5394,-3.5377,-3.5386,-3.5382,-3.5447,-3.5455,-3.5477,-3.5587,-3.5591,-3.5494,-3.5498,-3.5501,-3.5503,0,0,0,0,0,0,0,-3.5244,-3.5257,-3.5394,-3.5352,-3.5352,-3.534,-3.5348,-3.542,-3.543,-3.5378,-3.5374,-3.5384,-3.5446,-3.5471,-3.5478,-3.5592,-3.5494,-3.55,-3.5504,-3.5506,-3.5801,-3.5805,0,0,0,0,0,0,-3.5239,-3.5253,-3.5391,-3.5396,-3.529,-3.5346,-3.5355,-3.539,-3.5429,-3.5432,-3.5387,-3.5382,-3.5461,-3.5471,-3.5481,-3.5615,-3.5501,-3.5507,-3.5511,-3.5797,-3.5802,-3.5806,0,0,0,0,0,0,-3.5236,-3.5252,-3.5388,-3.5324,-3.534,-3.5353,-3.5393,-3.5393,-3.5417,-3.5437,-3.5438,-3.541,-3.5459,-3.5472,-3.556,-3.5617,-3.551,-3.5516,-3.5793,-3.5799,-3.5804,-3.5882,0,0,0,0,0,0,-3.523,-3.5251,-3.5292,-3.5325,-3.5344,-3.5465,-3.5396,-3.5397,-3.5429,-3.5422,-3.5458,-3.5461,-3.5457,-3.555,-3.5566,-3.5624,-3.5521,-3.5788,-3.5795,-3.5802,-3.5874,-3.589,-3.5903,0,0,0,0,0,-3.5224,-3.5309,-3.5294,-3.5311,-3.5395,-3.5468,-3.5479,-3.5473,-3.5433,-3.5475,-3.5489,-3.546,-3.5608,-3.556,-3.5577,-3.5637,-3.5784,-3.5793,-3.5802,-3.5868,-3.5887,-3.5903,0,0,0,0,0,0,-3.5281,-3.5313,-3.5297,-3.5396,-3.543,-3.546,-3.5512,-3.5493,-3.5538,-3.553,-3.5521,-3.553,-3.5623,-3.5638,-3.5584,-3.5748,-3.569,-3.5703,-3.5734,-3.5752,-3.5766,-3.5761,-3.5526,0,0,0,0,0,-3.5305,-3.5362,-3.5387,-3.5472,-3.549,-3.5499,-3.553,-3.5523,-3.5558,-3.5572,-3.5591,-3.5626,-3.5681,-3.5717,-3.5768,-3.5876,-3.5886,-3.5927,-3.5941,-3.5953,-3.5965,-3.6027,-3.6047,-3.5836,-3.5836,-3.5836,0,0,-3.5356,-3.538,-3.5416,-3.5484,-3.551,-3.557,-3.5511,-3.5576,-3.5621,-3.5582,-3.5667,-3.5683,-3.5721,-3.5821,-3.5866,-3.5837,-3.6025,-3.5964,-3.5974,-3.5979,-3.6039,-3.6059,-3.6076,-3.5842,-3.5841,-3.584,0,0,-3.5479,-3.5502,-3.5577,-3.5605,-3.5646,-3.5652,-3.567,-3.5704,-3.5714,-3.5799,-3.5772,-3.5826,-3.5919,-3.595,-3.5977,-3.6118,-3.6094,-3.6134,-3.621,-3.6271,-3.6288,-3.6302,-3.6356,-3.6375,-3.6146,-3.6146,-3.6146,0,-3.5536,-3.5625,-3.5618,-3.5687,-3.5719,-3.5688,-3.5766,-3.5793,-3.5848,-3.5872,-3.5839,-3.5959,-3.5983,-3.6091,-3.6126,-3.6148,-3.6171,-3.613,-3.6286,-3.6301,-3.6314,-3.6365,-3.6385,-3.6151,-3.615,-3.615,-3.6149,0,-3.5696,-3.5759,-3.5815,-3.5871,-3.5909,-3.5982,-3.5987,-3.6027,-3.6018,-3.6028,-3.6118,-3.6146,-3.6204,-3.6229,-3.6219,-3.6338,-3.6319,-3.6287,-3.6228,-3.6339,-3.6387,-3.6406,-3.6157,-3.6156,-3.6154,-3.6153,0,0,-3.5855,-3.5909,-3.593,-3.5958,-3.6002,-3.6051,-3.6124,-3.6182,-3.6218,-3.6258,-3.6321,-3.6403,-3.6374,-3.6406,-3.64,-3.6453,-3.6568,-3.6414,-3.6415,-3.6445,-3.6704,-3.673,-3.6752,-3.6552,-3.6556,-3.6559,-3.6702,0,-3.5983,-3.611,-3.6108,-3.6227,-3.6287,-3.6261,-3.6325,-3.636,-3.6372,-3.6426,-3.6439,-3.6499,-3.6455,-3.6475,-3.6526,-3.6543,-3.662,-3.6532,-3.6613,-3.6616,-3.6606,-3.6777,-3.6803,-3.6937,-3.672,-3.6723,-3.6725,0,-3.6148,-3.6196,-3.6322,-3.6362,-3.6387,-3.6445,-3.6501,-3.6551,-3.6592,-3.6597,-3.6635,-3.6622,-3.6699,-3.6638,-3.6745,-3.6686,-3.6719,-3.6733,-3.6738,-3.6746,-3.6678,-3.6792,-3.6979,-3.7,-3.6754,-3.6752,-3.675,0,-3.6255,-3.6351,-3.644,-3.6464,-3.6512,-3.6554,-3.6576,-3.6613,-3.665,-3.6699,-3.6723,-3.678,-3.6812,-3.6857,-3.6861,-3.6816,-3.6971,-3.6909,-3.6979,-3.698,-3.7013,-3.7012,-3.721,-3.7031,-3.7031,-3.7031,-3.703,0,-3.6399,-3.6478,-3.649,-3.6544,-3.6633,-3.6631,-3.6719,-3.6737,-3.6772,-3.6831,-3.6811,-3.6867,-3.6868,-3.6926,-3.6929,-3.702,-3.7033,-3.7042,-3.7042,-3.7045,-3.7044,-3.7067,-3.7059,-3.7036,-3.7035,-3.7034,-3.7033,0,-3.6534,-3.6544,-3.664,-3.6679,-3.6691,-3.6755,-3.6789,-3.6843,-3.6855,-3.693,-3.6948,-3.6967,-3.7035,-3.7043,-3.7121,-3.7124,-3.7234,-3.7223,-3.7221,-3.722,-3.7291,-3.7285,-3.7513,-3.7545,-3.7343,-3.7345,-3.7346,0,-3.6625,-3.6686,-3.6733,-3.6772,-3.6797,-3.6859,-3.6898,-3.69,-3.6941,-3.6995,-3.7043,-3.7109,-3.7162,-3.7272,-3.7293,-3.7355,-3.7347,-3.7423,-3.7356,-3.7358,-3.7352,-3.7349,-3.7357,-3.7436,-3.7438,-3.744,-3.7441,0,-3.6789,-3.6792,-3.6848,-3.6909,-3.6956,-3.7003,-3.7047,-3.708,-3.7088,-3.7136,-3.7206,-3.7247,-3.733,-3.7397,-3.7458,-3.7482,-3.7465,-3.7462,-3.7483,-3.7487,-3.7484,-3.749,-3.7259,-3.7457,-3.7456,-3.7454,-3.7454,-3.7453,-3.6906,-3.6961,-3.7004,-3.7069,-3.7103,-3.7146,-3.72,-3.722,-3.7278,-3.7346,-3.7344,-3.7422,-3.7466,-3.7547,-3.7576,-3.7638,-3.7613,-3.7641,-3.7649,-3.7656,-3.7665,-3.7473,-3.7649,-3.7648,-3.7648,-3.7648,-3.7647,0,-3.7071,-3.7099,-3.7159,-3.7223,-3.7275,-3.7255,-3.7304,-3.7349,-3.7419,-3.7461,-3.7515,-3.7598,-3.7664,-3.7693,-3.7758,-3.7803,-3.7797,-3.7821,-3.7819,-3.7825,-3.7682,-3.7659,-3.7825,-3.7825,-3.7825,-3.7825,-3.7825,-3.7825,-3.7163,-3.7255,-3.7265,-3.7375,-3.7402,-3.748,-3.751,-3.7551,-3.7586,-3.768,-3.7735,-3.7754,-3.7792,-3.7861,-3.7922,-3.7929,-3.7955,-3.7983,-3.7987,-3.7853,-3.7835,-3.7818,-3.7797,-3.7988,-3.7989,-3.8125,-3.8127,-3.8128]},{"header":{"parameterUnit":"m.s-1","parameterCategory":1,"la1":30.2991,"la2":30.254,"lo1":-89.0895,"lo2":-89.0444,"dy":0.0017,"dx":0.0017,"nx":28,"ny":28,"refTime":"2024-10-05T09:00:00:Z","depth":0,"parameterNumber":3,"parameterNumberName":"V-component_of_WINDS"},"data":[0,0,0,0,0,0,0,0,0,0,0,0,0,0,0,0,0,0,0,0,0,0,0,0,0,0,0,0,0,0,0,0,0,0,0,0,0,0,0,0,0,0,0,0,0,0,0,0,0,0,0,0,0,0,0,0,0,0,-2.2883,-2.2884,0,-2.3024,-2.3025,-2.3027,-2.3053,-2.3052,-2.3051,-2.305,-2.3196,-2.3201,-2.3206,0,0,0,0,0,0,0,0,0,0,0,0,0,-2.2637,-2.2642,-2.2882,-2.2884,-2.2886,-2.3024,-2.3025,-2.3027,-2.3054,-2.3052,-2.3051,-2.305,-2.3195,-2.32,-2.3206,0,0,0,0,0,0,0,0,0,0,0,0,0,-2.2758,-2.2643,-2.2882,-2.2916,-2.292,-2.3023,-2.3026,-2.3028,-2.3054,-2.3052,-2.305,-2.3049,-2.3193,-2.32,-2.3207,-2.3287,0,0,-2.323,-2.3233,0,0,0,0,0,0,0,0,-2.2751,-2.2767,-2.2909,-2.2913,-2.2919,-2.3019,-2.2993,-2.3115,-2.3054,-2.3003,-2.305,-2.3048,-2.3139,-2.3151,-2.3181,-2.3294,-2.33,-2.3231,-2.3235,-2.3238,-2.324,0,0,0,0,0,0,0,-2.2742,-2.2761,-2.2938,-2.2911,-2.2917,-2.2924,-2.2939,-2.3016,-2.3079,-2.3007,-2.301,-2.3026,-2.3141,-2.3174,-2.3184,-2.3303,-2.323,-2.3237,-2.3242,-2.3244,-2.3491,-2.3493,0,0,0,0,0,0,-2.2728,-2.2754,-2.2934,-2.2943,-2.2829,-2.293,-2.2947,-2.2989,-2.3078,-2.309,-2.3027,-2.3027,-2.3162,-2.3176,-2.319,-2.3291,-2.3238,-2.3245,-2.3249,-2.3489,-2.3491,-2.3494,0,0,0,0,0,0,-2.2723,-2.2744,-2.2928,-2.2849,-2.2873,-2.2936,-2.2983,-2.2992,-2.3025,-2.3093,-2.3105,-2.3049,-2.3161,-2.3179,-2.3263,-2.3296,-2.3249,-2.3255,-2.3486,-2.349,-2.3493,-2.3493,0,0,0,0,0,0,-2.2715,-2.2742,-2.2772,-2.2849,-2.2877,-2.2999,-2.2985,-2.2996,-2.3037,-2.3038,-2.3116,-2.3128,-2.3161,-2.3252,-2.3271,-2.3306,-2.3261,-2.3484,-2.3488,-2.3492,-2.349,-2.3496,-2.35,0,0,0,0,0,-2.2707,-2.2767,-2.2774,-2.2795,-2.2916,-2.3,-2.3016,-2.3053,-2.304,-2.3072,-2.3116,-2.3125,-2.3289,-2.326,-2.3282,-2.3319,-2.3482,-2.3487,-2.3491,-2.3488,-2.3495,-2.35,0,0,0,0,0,0,-2.2692,-2.2777,-2.2786,-2.2873,-2.2929,-2.3005,-2.3046,-2.3059,-2.312,-2.3118,-2.3162,-2.3179,-2.3261,-2.3299,-2.3265,-2.3403,-2.3385,-2.3394,-2.3375,-2.3382,-2.3387,-2.3377,-2.3267,0,0,0,0,0,-2.2699,-2.2759,-2.2831,-2.29,-2.2928,-2.2982,-2.302,-2.3044,-2.3104,-2.3128,-2.3178,-2.3237,-2.3302,-2.3344,-2.3407,-2.3496,-2.3514,-2.3532,-2.3537,-2.3541,-2.3549,-2.36,-2.3609,-2.3509,-2.3509,-2.3509,0,0,-2.2714,-2.2768,-2.2803,-2.2899,-2.2945,-2.3008,-2.3002,-2.3068,-2.3116,-2.3138,-2.3221,-2.326,-2.3328,-2.3415,-2.3456,-2.3449,-2.358,-2.3547,-2.3549,-2.3555,-2.3606,-2.3615,-2.3624,-2.3512,-2.3512,-2.3511,0,0,-2.2773,-2.2819,-2.2883,-2.293,-2.3,-2.3036,-2.3051,-2.3125,-2.3152,-2.3236,-2.3255,-2.3312,-2.3422,-2.3471,-2.351,-2.3589,-2.3601,-2.3608,-2.3635,-2.3684,-2.3692,-2.3699,-2.3729,-2.3739,-2.3615,-2.3616,-2.3616,0,-2.2782,-2.2877,-2.2914,-2.298,-2.3022,-2.3046,-2.3111,-2.3155,-2.3243,-2.3272,-2.3263,-2.3403,-2.3451,-2.355,-2.3569,-2.36,-2.362,-2.36,-2.3688,-2.3696,-2.3703,-2.3732,-2.3743,-2.3616,-2.3616,-2.3616,-2.3616,0,-2.2886,-2.2952,-2.2995,-2.3079,-2.3126,-2.3191,-2.3239,-2.3283,-2.3302,-2.3339,-2.3425,-2.3483,-2.3559,-2.3584,-2.3604,-2.3687,-2.3681,-2.3679,-2.3662,-2.3712,-2.374,-2.3752,-2.3617,-2.3617,-2.3617,-2.3616,0,0,-2.294,-2.3045,-2.306,-2.3099,-2.3179,-2.3231,-2.3298,-2.3373,-2.3409,-2.3469,-2.3528,-2.3621,-2.3621,-2.3665,-2.369,-2.3733,-2.3794,-2.3727,-2.3729,-2.3739,-2.3891,-2.3893,-2.3905,-2.3802,-2.3804,-2.3806,-2.3886,0,-2.301,-2.313,-2.3166,-2.3267,-2.3329,-2.3352,-2.3411,-2.3467,-2.3503,-2.3562,-2.3602,-2.3668,-2.3662,-2.3689,-2.3733,-2.3777,-2.3826,-2.3772,-2.3858,-2.3861,-2.3841,-2.3919,-2.3921,-2.3994,-2.3897,-2.3899,-2.39,0,-2.3108,-2.317,-2.3277,-2.335,-2.3377,-2.3429,-2.3501,-2.3556,-2.3621,-2.3644,-2.3694,-2.3716,-2.3788,-2.3767,-2.3868,-2.383,-2.3868,-2.3895,-2.3899,-2.3909,-2.3884,-2.3933,-2.4018,-2.4029,-2.3918,-2.3916,-2.3915,0,-2.3138,-2.3248,-2.3327,-2.336,-2.3447,-2.3483,-2.3521,-2.3584,-2.3627,-2.369,-2.3718,-2.3789,-2.3828,-2.3882,-2.3923,-2.3904,-2.4021,-2.4003,-2.4044,-2.4043,-2.4069,-2.4067,-2.4162,-2.409,-2.409,-2.409,-2.409,0,-2.3213,-2.3278,-2.3342,-2.3391,-2.3465,-2.3506,-2.3578,-2.3617,-2.3673,-2.3731,-2.3755,-2.3808,-2.3859,-2.3919,-2.3952,-2.4031,-2.4048,-2.407,-2.4078,-2.4069,-2.4066,-2.4095,-2.4091,-2.4093,-2.4092,-2.4092,-2.4091,0,-2.326,-2.3305,-2.3393,-2.3468,-2.3489,-2.354,-2.3605,-2.3654,-2.3691,-2.3764,-2.3783,-2.3842,-2.3915,-2.3961,-2.4053,-2.4075,-2.4163,-2.4169,-2.4141,-2.4145,-2.4185,-2.4181,-2.4303,-2.4321,-2.4236,-2.4237,-2.4237,0,-2.3306,-2.3356,-2.3437,-2.3477,-2.3516,-2.358,-2.3624,-2.3667,-2.3712,-2.379,-2.3829,-2.3903,-2.3965,-2.408,-2.4132,-2.4203,-2.4212,-2.425,-2.4223,-2.4212,-2.4215,-2.4212,-2.4218,-2.4254,-2.4255,-2.4256,-2.4256,0,-2.3382,-2.3402,-2.3464,-2.3535,-2.3587,-2.3645,-2.3703,-2.3734,-2.3787,-2.3837,-2.3911,-2.3959,-2.4054,-2.4128,-2.4204,-2.4244,-2.426,-2.4264,-2.4278,-2.4269,-2.4252,-2.4263,-2.4155,-2.4261,-2.4261,-2.426,-2.426,-2.426,-2.3431,-2.3478,-2.3542,-2.3611,-2.3659,-2.3713,-2.3763,-2.3807,-2.3869,-2.395,-2.3971,-2.4049,-2.4114,-2.4218,-2.426,-2.4322,-2.4317,-2.4337,-2.4342,-2.4346,-2.4348,-2.4241,-2.4336,-2.4336,-2.4336,-2.4336,-2.4336,0,-2.351,-2.3553,-2.3616,-2.3696,-2.3751,-2.376,-2.3825,-2.387,-2.3939,-2.3997,-2.4058,-2.4144,-2.4216,-2.4274,-2.4348,-2.4388,-2.4397,-2.4406,-2.4404,-2.4414,-2.4347,-2.4329,-2.4397,-2.4397,-2.4397,-2.4397,-2.4397,-2.4397,-2.3557,-2.3637,-2.3665,-2.377,-2.3813,-2.3889,-2.3926,-2.3976,-2.4023,-2.4118,-2.4178,-2.4215,-2.4274,-2.4353,-2.4421,-2.4436,-2.4463,-2.4471,-2.4488,-2.4425,-2.4418,-2.4412,-2.4394,-2.4476,-2.4476,-2.4549,-2.455,-2.455]}]]